This demonstration page uses our WeatherBlox Daily Observations layout. Learn more.

36.17497, -115.13722

Hourly Observations for February 11, 2016

Temp ( °F °C ) Dew Point ( °F °C ) Humidity (%) Winds ( mph kmh ) Pressure ( in mb ) Visibility ( mi km ) Precip ( " mm )
12:53 am 00:53 Clear 52 11.1 25 -3.9 35 35 Calm 30.27 1025 10 16.0934 0 0
1:53 am 01:53 Clear 53 11.7 26 -3.3 35 35 Calm 30.26 1025 10 16.0934 0 0
2:53 am 02:53 Clear 49 9.4 27 -2.8 43 43 W 8 13 30.26 1025 10 16.0934 0 0
3:53 am 03:53 Clear 51 10.6 24 -4.4 35 35 N 7 11 30.25 1025 10 16.0934 0 0
4:53 am 04:53 Clear 47 8.3 24 -4.4 41 41 N 5 7 30.27 1025 10 16.0934 0 0
5:53 am 05:53 Clear 46 7.8 26 -3.3 46 46 WNW 9 15 30.29 1026 10 16.0934 0 0
6:53 am 06:53 Sunny 47 8.3 25 -3.9 42 42 N 3 6 30.31 1026 10 16.0934 0 0
7:53 am 07:53 Sunny 49 9.4 26 -3.3 41 41 Calm 30.33 1027 10 16.0934 0 0
8:53 am 08:53 Sunny 57 13.9 27 -2.8 32 32 Calm 30.34 1027 10 16.0934 0 0
9:53 am 09:53 Sunny 59 15 26 -3.3 28 28 Calm 30.33 1027 10 16.0934 0 0
10:53 am 10:53 Sunny 64 17.8 25 -3.9 23 23 Calm 30.31 1027 10 16.0934 0 0
11:53 am 11:53 Sunny 66 18.9 24 -4.4 20 20 Calm 30.28 1025 10 16.0934 0 0
12:53 pm 12:53 Sunny 69 20.6 24 -4.4 18 18 Calm 30.24 1024 10 16.0934 0 0
1:53 pm 13:53 Sunny 71 21.7 23 -5 16 16 Calm 30.22 1023 10 16.0934 0 0
2:53 pm 14:53 Sunny 72 22.2 22 -5.6 15 15 SE 3 6 30.21 1023 10 16.0934 0 0
3:53 pm 15:53 Sunny 72 22.2 24 -4.4 17 17 ESE 6 9 30.2 1023 10 16.0934 0 0
4:53 pm 16:53 Sunny 71 21.7 22 -5.6 16 16 Calm 30.22 1023 10 16.0934 0 0
5:53 pm 17:53 Clear 67 19.4 22 -5.6 18 18 Calm 30.23 1024 10 16.0934 0 0
6:53 pm 18:53 Clear 62 16.7 26 -3.3 25 25 NW 7 11 30.25 1024 10 16.0934 0 0
7:53 pm 19:53 Clear 58 14.4 27 -2.8 31 31 NW 5 7 30.26 1025 10 16.0934 0 0
8:53 pm 20:53 Clear 56 13.3 28 -2.2 34 34 NNW 5 7 30.26 1025 10 16.0934 0 0
9:53 pm 21:53 Clear 54 12.2 26 -3.3 34 34 NW 5 7 30.26 1025 10 16.0934 0 0
10:53 pm 22:53 Clear 51 10.6 27 -2.8 39 39 NNW 6 9 30.26 1025 10 16.0934 0 0
11:53 pm 23:53 Clear 51 10.6 26 -3.3 38 38 WNW 6 9 30.26 1025 10 16.0934 0 0

Powered by AerisWeather